RH
28 21 23 25 27 25 26 25 25 35 50 60 61 53 45 41 35 30 27 31 44 51 47 50 41 36 31 33 40 51 35 32 29
29 23 24 26 29 31 29 28 28 27 27 32 33 35 34 32 29 28 35 42 68 50 47 41 40 34 40 43 36 34 33 31 30
34 25 26 28 31 30 28 27 29 29 28 28 28 29 29 28 32 38 49 60 44 38 41 42 40 42 37 34 36 36 36 34 31
33 26 27 30 35 33 30 30 30 30 28 28 28 29 32 36 40 53 46 40 41 39 37 37 36 52 55 36 43 40 38 33 30
34 30 30 31 38 34 33 34 33 33 32 32 33 36 39 39 45 44 46 50 54 47 38 38 39 57 66 49 50 39 40 34 33
36 33 35 33 39 36 36 37 38 37 38 38 38 40 48 49 49 50 67 60 69 55 42 42 46 62 75 74 59 47 41 34 31
43 34 36 36 43 40 38 42 42 41 40 41 42 45 51 53 60 84 83 68 75 51 44 41 45 56 67 86 63 54 48 35 30
51 39 37 43 46 47 44 41 46 48 44 43 48 52 56 74 88 100 89 80 62 56 49 46 56 68 85 75 67 54 49 35 29
55 43 40 46 51 49 45 43 44 56 51 47 50 58 70 100 96 87 88 68 64 65 59 54 54 66 75 85 73 54 49 36 31
63 55 53 48 54 52 50 48 47 61 61 59 60 84 100 100 100 97 82 72 67 64 58 57 53 58 97 92 82 60 50 38 32
78 66 65 51 60 57 56 51 50 53 63 69 64 100 100 100 100 96 86 69 73 60 55 59 52 63 87 91 82 69 56 40 32
83 72 72 60 56 66 67 58 57 60 57 61 92 100 95 98 89 84 82 81 79 72 62 61 61 66 91 90 81 79 59 43 34
92 80 81 74 67 77 74 68 66 70 68 68 85 86 85 91 98 94 93 95 78 68 70 67 66 69 77 83 97 86 65 44 36
100 89 92 88 72 82 80 79 77 73 79 76 69 63 62 77 94 98 100 91 75 61 65 70 70 73 72 88 98 88 68 45 39
100 100 98 100 92 91 89 94 94 91 73 87 96 91 79 93 100 100 100 88 77 70 77 84 79 77 70 90 96 92 71 49 44
100 100 100 100 99 98 98 100 100 100 94 96 99 100 97 96 100 100 100 93 80 75 83 91 86 78 77 77 96 95 79 55 46
100 100 100 100 100 100 100 100 100 100 100 100 100 100 100 100 100 100 100 91 87 86 84 92 81 79 82 88 100 98 87 61 47
86 100 100 100 100 100 100 100 100 100 100 100 100 100 100 100 100 100 100 99 100 93 77 79 79 77 96 99 100 100 92 68 53
95 75 90 94 100 100 100 100 100 100 100 100 100 100 100 100 100 99 99 93 100 83 91 84 74 64 80 100 100 100 100 70 53
100 100 100 100 78 71 93 100 100 100 100 100 100 100 100 92 81 89 93 85 92 87 100 77 82 65 70 97 100 100 100 75 60
Wind_Speed
26 24 21 18 16 16 15 14 12 11 11 12 11 10 11 10 10 10 10 11 13 15 20 23 22 26 30 33 37 39 42 42 43
28 25 22 19 16 16 16 17 14 13 12 12 12 11 10 10 9 8 8 10 14 19 20 21 24 27 32 34 36 39 42 44 45
29 26 23 19 16 16 17 15 15 14 14 13 12 11 10 8 7 6 7 11 15 18 19 21 23 27 31 35 40 43 45 47 48
31 28 24 21 19 18 17 15 14 14 14 13 11 10 8 6 4 4 8 11 16 20 20 20 23 24 34 38 41 43 46 50 51
33 30 27 24 22 21 19 16 15 14 13 13 12 10 7 4 3 4 8 14 18 21 19 21 24 26 32 37 42 45 46 51 52
36 32 30 26 24 23 20 18 16 15 14 14 13 10 7 6 5 6 11 15 20 22 22 24 24 26 32 38 43 46 48 51 55
38 35 32 29 25 25 22 20 19 18 17 17 14 11 10 10 10 9 14 17 21 22 22 26 27 30 35 38 41 47 51 52 55
42 38 35 31 27 26 25 23 20 20 19 17 15 13 13 12 14 12 18 19 21 24 25 27 30 33 37 40 42 48 52 52 57
44 40 37 33 30 28 26 24 23 23 22 20 17 15 13 11 11 14 18 20 23 25 27 28 30 34 37 37 44 47 50 51 57
46 43 40 37 34 30 28 27 25 24 23 21 18 15 14 14 13 16 19 22 24 27 28 30 31 34 37 41 45 48 49 53 58
46 47 43 40 37 31 29 28 27 26 25 23 20 17 16 16 17 20 22 24 27 27 29 31 31 34 38 43 46 48 50 54 60
50 49 46 42 37 34 31 29 29 27 27 26 21 19 18 19 22 24 26 26 28 28 30 33 34 36 40 42 45 47 50 56 60
53 52 49 44 40 38 35 33 31 28 26 26 25 24 23 21 22 25 24 26 28 29 31 34 35 37 40 42 46 46 51 56 60
55 53 50 46 44 41 38 35 32 30 28 27 27 27 27 25 24 23 21 27 30 31 33 35 36 38 39 42 45 46 51 54 58
57 56 53 50 47 45 43 39 36 33 32 30 30 28 26 26 25 24 24 29 32 32 35 36 37 38 40 42 45 47 49 54 55
57 57 56 53 50 48 45 43 42 38 35 35 33 31 28 28 28 27 29 32 33 31 36 37 37 39 40 42 46 48 46 51 54
51 57 58 55 53 51 47 45 44 42 39 37 36 35 33 31 30 31 33 35 35 34 37 38 37 41 42 43 47 49 45 49 53
57 50 52 57 54 53 50 48 46 44 42 40 38 36 36 34 34 36 36 38 36 36 38 39 40 42 42 43 46 47 43 47 50
57 60 54 52 47 49 51 46 46 45 45 45 43 41 40 39 37 38 39 39 38 38 39 40 42 41 42 44 47 45 41 45 48
58 57 55 53 53 54 52 47 46 47 47 45 43 42 41 42 42 41 41 40 38 39 40 43 46 42 43 46 46 44 40 43 47
Wind_Direction
203 205 210 212 216 219 216 218 217 217 218 222 226 232 240 252 267 280 296 314 331 341 343 343 346 348 349 344 345 347 349 353 354
203 205 212 217 218 219 219 222 219 220 222 222 223 231 243 255 267 286 312 324 334 337 340 345 349 352 352 352 355 356 354 354 354
203 206 213 219 216 214 215 217 216 220 223 226 230 234 238 251 275 302 321 338 334 338 340 345 348 355 1 2 1 359 358 356 355
202 207 213 218 217 214 213 213 217 217 219 220 217 223 236 253 261 326 348 347 347 346 347 344 344 346 353 358 359 356 357 357 355
203 208 213 216 217 216 217 215 213 212 215 216 216 221 216 238 295 329 333 344 348 348 346 340 340 342 350 352 354 355 354 355 353
203 208 214 216 219 219 214 213 213 211 211 213 210 206 224 247 279 292 317 332 339 343 341 342 341 340 341 345 349 354 354 353 354
206 210 214 217 220 217 212 212 212 212 206 203 209 220 235 257 272 284 313 324 330 338 336 336 339 337 339 342 345 350 352 353 354
207 209 215 216 219 218 218 216 217 214 213 212 220 229 243 272 281 283 303 313 325 331 331 331 334 337 342 341 344 347 349 354 353
208 211 214 218 219 218 219 219 221 220 218 223 229 239 250 271 277 284 296 309 321 325 328 329 329 336 337 338 340 344 347 353 352
210 215 214 219 219 218 221 220 222 223 224 230 230 238 250 263 274 282 291 305 314 320 325 327 328 332 334 334 337 341 346 350 351
213 217 216 219 223 220 221 223 224 226 227 234 237 240 246 253 261 273 282 298 310 316 321 325 324 329 330 332 336 339 344 348 351
212 218 219 220 224 225 224 226 228 230 232 232 238 241 248 258 266 276 290 303 306 312 318 323 323 326 329 330 334 336 342 345 351
214 217 220 224 224 230 230 230 232 231 234 237 241 245 254 264 271 280 291 297 301 310 317 318 321 323 328 329 331 336 339 346 351
214 218 222 223 225 230 234 235 236 238 238 243 248 252 258 262 272 277 292 295 302 310 317 315 316 321 324 328 330 334 340 346 350
216 217 220 224 226 230 234 236 238 242 246 248 251 255 259 271 276 285 290 291 297 306 316 314 315 319 322 327 326 330 341 344 350
217 221 223 227 229 233 235 236 239 241 245 249 253 257 264 270 276 283 282 287 296 306 312 312 314 317 318 323 323 326 339 341 348
222 224 225 224 228 232 236 242 244 244 246 249 252 256 262 269 275 278 279 285 296 299 308 309 313 317 315 320 319 322 336 339 345
214 217 229 229 229 232 237 240 243 246 251 255 257 261 264 269 272 273 281 290 294 295 304 307 311 314 313 314 315 317 331 337 343
219 220 219 220 226 238 239 240 244 250 254 256 259 261 263 263 271 276 283 286 291 296 303 306 310 309 310 310 312 312 326 334 340
219 221 224 228 230 231 233 235 239 244 247 250 255 259 261 266 271 277 280 282 285 295 297 301 305 305 307 306 307 308 322 330 335